Regional Weather Roundup
Issued by NWS

Home | Current Version | Previous Version | Graphics & Text | Print | Product List | Glossary On
Versions: 1 2 3 4 5 6 7 8 9 10 11 12 13 14 15 16 17 18 19 20 21 22 23 24 25 26 27 28 29 30 31 32 33 34 35 36 37 38 39 40 41 42 43 44 45 46 47 48 49 50
000
ASUS43 KOAX 230010
RWRNE

WEATHER ROUNDUP FOR NEBRASKA
NATIONAL WEATHER SERVICE OMAHA NE
700 PM CDT SAT APR 22 2017

NOTES: SATELLITE DATA IS BEING USED TO AUGMENT CLOUD COVER ABOVE
       12000 FEET.
       "FAIR" INDICATES FEW OR NO CLOUDS BELOW 12,000 FEET WITH NO
       SIGNIFICANT WEATHER AND/OR OBSTRUCTIONS TO VISIBILITY.

  * THESE STATIONS DO NOT REPORT WEATHER SUCH AS RAIN...SNOW OR FOG.

NEZ001>004-019>022-054>056-230100-
NEBRASKA PANHANDLE

CITY           SKY/WX    TMP DP  RH WIND       PRES   REMARKS
SCOTTSBLUFF    SUNNY     62  27  26 SW12G18   30.17F
6HR MIN TEMP:  56; 6HR MAX TEMP:  64;

ALLIANCE       SUNNY     60  27  28 SW13      30.17F
6HR MIN TEMP:  54; 6HR MAX TEMP:  62;

CHADRON        MOSUNNY   64  31  28 S12G20    30.13F
6HR MIN TEMP:  58; 6HR MAX TEMP:  65;

KIMBALL        SUNNY     57  33  40 S9        30.22F
SIDNEY         SUNNY     56  32  40 S9        30.23S
6HR MIN TEMP:  50; 6HR MAX TEMP:  57;

$$

NEZ057>060-069>072-079>082-230100-
SOUTHWEST NEBRASKA

CITY           SKY/WX    TMP DP  RH WIND       PRES   REMARKS
NORTH PLATTE   SUNNY     63  27  25 CALM      30.21S
6HR MIN TEMP:  57; 6HR MAX TEMP:  65;

IMPERIAL       SUNNY     59  29  31 SW3       30.22F
6HR MIN TEMP:  54; 6HR MAX TEMP:  61;

LEXINGTON      SUNNY     62  28  28 CALM      30.21F
MCCOOK         SUNNY     63  29  27 CALM      30.21F
6HR MIN TEMP:  56; 6HR MAX TEMP:  65;

OGALLALA       SUNNY     64  24  22 CALM      30.20F
$$

NEZ005>010-023>029-035>040-094-230100-
NORTH CENTRAL NEBRASKA

CITY           SKY/WX    TMP DP  RH WIND       PRES   REMARKS
VALENTINE      SUNNY     67  21  17 S6        30.16F
6HR MIN TEMP:  60; 6HR MAX TEMP:  68;

AINSWORTH      SUNNY     63  31  30 S7        30.18F
BROKEN BOW     SUNNY     63  30  28 E3        30.20F
6HR MIN TEMP:  57; 6HR MAX TEMP:  64;

O`NEILL        SUNNY     64  30  27 CALM      30.20F
ORD            SUNNY     63  27  25 CALM      30.19F
6HR MIN TEMP:  57; 6HR MAX TEMP:  64;

THEDFORD       SUNNY     64  24  21 S7        30.20S
$$

NEZ041-046>049-061>064-073>077-083>087-230100-
SOUTH CENTRAL NEBRASKA

CITY           SKY/WX    TMP DP  RH WIND       PRES   REMARKS
GRAND ISLAND   SUNNY     64  30  27 N8        30.21F
6HR MIN TEMP:  58; 6HR MAX TEMP:  66;

AURORA         SUNNY     64  28  25 NE8       30.20F
HASTINGS       SUNNY     64  27  24 N9        30.21S
6HR MIN TEMP:  57; 6HR MAX TEMP:  65;

HEBRON         SUNNY     64  26  24 E8        30.19S
HOLDREGE       SUNNY     61  24  23 E3        30.21S
KEARNEY *      SUNNY     63  27  25 NE8       30.21F
YORK           SUNNY     63  30  29 N6        30.20F
$$

NEZ011>018-030>034-042>045-230100-
NORTHEAST NEBRASKA

CITY           SKY/WX    TMP DP  RH WIND       PRES   REMARKS
NORFOLK        SUNNY     64  29  26 CALM      30.19S
6HR MIN TEMP:  60; 6HR MAX TEMP:  65;

ALBION         SUNNY     64  28  26 CALM      30.20S
BLAIR          SUNNY     65  34  32 NE5       30.18S
FREMONT        SUNNY     64  30  27 NE5       30.19F
TEKAMAH        SUNNY     66  32  28 N6        30.18F
6HR MIN TEMP:  63; 6HR MAX TEMP:  67;

WAYNE          SUNNY     64  37  36 CALM      30.19S
$$

NEZ050>053-065>068-078-088>093-230100-
SOUTHEAST NEBRASKA

CITY           SKY/WX    TMP DP  RH WIND       PRES   REMARKS
LINCOLN        SUNNY     65  33  30 NE12      30.20S
6HR MIN TEMP:  62; 6HR MAX TEMP:  67;

OMAHA EPPLEY   MOSUNNY   67  31  26 NE8       30.18S
6HR MIN TEMP:  63; 6HR MAX TEMP:  69;

BEATRICE       SUNNY     64  30  28 NE8       30.18F
FALLS CITY     SUNNY     63  30  28 NE16      30.15S
6HR MIN TEMP:  60; 6HR MAX TEMP:  66;

NEBRASKA CITY  SUNNY     64  17  16 NE13      30.16F
PLATTSMOUTH    SUNNY     65  16  15 NE7       30.18S
$$

NEZ044-045-051>053-067-230100-
OMAHA AREA

CITY           SKY/WX    TMP DP  RH WIND       PRES   REMARKS
OMAHA EPPLEY   MOSUNNY   67  31  26 NE8       30.18S
6HR MIN TEMP:  63; 6HR MAX TEMP:  69;

BLAIR          SUNNY     65  34  32 NE5       30.18S
FREMONT        SUNNY     64  30  27 NE5       30.19F
MILLARD        SUNNY     67  35  29 N6        30.18S
OFFUTT AFB     SUNNY     65  30  27 N9        30.17S
PLATTSMOUTH    SUNNY     65  16  15 NE7       30.18S
WAHOO          FAIR      65  29  25 NE8       30.19S
$$




USA.gov is the U.S. government's official web portal to all federal, state and local government web resources and services.